Flag for U.S.A. Weather past 2 weeks in Mobile, Alabama, U.S.A.

Now
57 °F

Clear.


Feels Like: 57 °F
Forecast: 55 / 79 °F
Wind: 5 mph from Northwest

Location: Mobile Downtown Airport

Current Time: Oct 21, 2014 at 12:51:14 AM

Latest Report: Oct 20, 2014 at 11:53 PM


Visibility: 10 mi

Pressure: 30.02 "Hg

Humidity: 93%

Dew point: 55 °F

Location of MobileLocation

Historic Weather in Mobile — Graph

°F

Mobile temperature yesterday

Maximum temperature yesterday: 77 °F (at 1:53 PM)
Minimum temperature yesterday: 49 °F (at 6:53 AM)
Average temperature yesterday: 62 °F

Past Weeks' High & Low Weather Summary

 TemperatureHumidityPressure
High87 °F (Oct 8, 1:53 PM)100% (Oct 6, 4:53 AM)30.15 "Hg (Oct 6, 4:53 AM)
Low49 °F (Oct 20, 6:53 AM)29% (Oct 16, 2:53 PM)29.77 "Hg (Oct 14, 2:53 AM)
Average71 °F78%30.02 "Hg
* Reported Oct 5 11:53 PM — Oct 20 11:53 PM, Mobile, Weather by CustomWeather, © 2014

Note: Actual official high and low records may vary slightly from our data, if they occured in-between our weather recording intervals... More about our weather records

Advertising

Mobile weather history for previous 24 hours

 ConditionsComfort  
Time TempWeatherWind HumidityBarometerVisibility
11:53 PM
Oct 20
57 °FClear.5 mph93%30.02 "Hg10 mi
10:53 PM56 °FClear.3 mph97%30.03 "Hg10 mi
9:53 PM56 °FClear.5 mph93%30.03 "Hg10 mi
8:53 PM58 °FClear.No wind93%30.02 "Hg10 mi
7:53 PM61 °FClear.No wind87%30.01 "Hg10 mi
6:53 PM62 °FSunny.No wind83%30.01 "Hg10 mi
5:53 PM69 °FSunny.N/A61%30.00 "Hg10 mi
4:53 PM77 °FSunny.5 mph42%29.99 "Hg10 mi
3:53 PM77 °FSunny.3 mph44%30.00 "Hg10 mi
2:53 PM77 °FSunny.8 mph48%30.01 "Hg10 mi
1:53 PM77 °FSunny.8 mph48%30.02 "Hg10 mi
12:53 PM75 °FSunny.7 mph52%30.05 "Hg10 mi
11:53 AM74 °FSunny.6 mph52%30.07 "Hg10 mi
10:53 AM70 °FSunny.6 mph64%30.08 "Hg10 mi
9:53 AM66 °FSunny.5 mph68%30.09 "Hg10 mi
8:53 AM61 °FSunny.3 mph78%30.09 "Hg10 mi
7:53 AM54 °FClear.7 mph97%30.08 "Hg10 mi
6:53 AM49 °FClear.6 mph100%30.06 "Hg10 mi
5:53 AM50 °FClear.7 mph96%30.06 "Hg10 mi
4:53 AM50 °FClear.6 mph96%30.05 "Hg10 mi
3:53 AM51 °FClear.3 mph96%30.06 "Hg10 mi
2:53 AM52 °FClear.3 mph93%30.06 "Hg10 mi
1:53 AM53 °FClear.5 mph89%30.07 "Hg10 mi
12:53 AM53 °FClear.6 mph89%30.07 "Hg10 mi
Weather by CustomWeather, © 2014

See weather overviewHow to use our weather pages